Regional Weather Roundup
Issued by NWS Sterling, VA

Home | Current Version | Previous Version | Graphics & Text | Print | Product List | Glossary Off
Versions: 1 2 3 4 5 6 7 8 9 10 11 12 13 14 15 16 17 18 19 20 21 22 23 24 25 26 27 28 29 30 31 32 33 34 35 36 37 38 39 40 41 42 43 44 45 46 47 48 49 50

000
ASUS41 KLWX 210010
RWRLWX

REGIONAL WEATHER ROUNDUP
NATIONAL WEATHER SERVICE BALTIMORE MD/WASHINGTON DC
700 PM EST TUE FEB 20 2018

Note: "FAIR" indicates few or no clouds below 12,000 feet
with no significant weather and/or obstructions to visibility.
 TC=TEMPERATURE CELSIUS

 * =Non NWS site. Station does not report precipitation (e.g. rain,
    snow, etc.), thunder, or fog.

DCZ001-MDZ009-015-VAZ040>042-051-053>054-210100-
WASHINGTON METRO

CITY           SKY/WX    TMP DP  RH WIND       PRES   REMARKS
WASHINGTON NAT MOCLDY    68  54  60 S14       30.31R
DULLES         MOCLDY    70  54  56 S13       30.30R
ANDREWS AFB    CLEAR     68  55  64 S13       30.33R
FT BELVOIR     FAIR      70  53  53 S5        30.32R
QUANTICO       FAIR      58  51  78 SW13      30.34R
COLLEGE PARK*  FAIR      71  54  54 S5        30.31R
LEESBURG*      FAIR      70  57  64 S9        30.31R
GAITHERSBURG*  FAIR      69  54  58 S5        30.32R

$$

MDZ006>007-011-014-210100-
BALTIMORE METRO

CITY           SKY/WX    TMP DP  RH WIND       PRES   REMARKS
BWI AIRPORT    FAIR      64  58  80 SE5       30.31R
MD SCIENCE CTR   N/A     66  58  75 MISG      30.30R
MARTIN STATE   PTCLDY    59  57  94 S8        30.34R
ANNAPOLIS      FAIR      58  57  97 S14G24    30.33R
FORT MEADE*    FAIR      64  55  72 SE5       30.33R

$$

MDZ012-015-019>023-210100-
MARYLAND EASTERN SHORE

CITY           SKY/WX    TMP DP  RH WIND       PRES   REMARKS
OCEAN CITY     FOG       54  54 100 S7        30.41R VSB 1/2
SALISBURY      FAIR      63  62  97 S8        30.39R
CAMBRIDGE*       N/A     59  57  94 S10       30.37R
EASTON*        CLEAR     63  59  88 S12       30.39R

$$

MDZ017>025-210100-
SOUTHERN MARYLAND

CITY           SKY/WX    TMP DP  RH WIND       PRES   REMARKS
PATUXENT RIVER FAIR      51  51 100 SE6       30.36R
ST INIGOES     FAIR      63  47  55 S7        30.36R
LEONARDTOWN*   FAIR      66  59  77 S8        30.37R

$$

MDZ003>005-210100-
NORTH CENTRAL MARYLAND

CITY           SKY/WX    TMP DP  RH WIND       PRES   REMARKS
FREDERICK*     CLEAR     72  54  53 S8        30.31R
HAGERSTOWN APT FAIR      70  56  61 S15       30.26R
WESTMINSTER*   FAIR      66  54  63 S5        30.31R

$$

MDZ501>502-210100-
WESTERN MARYLAND

CITY           SKY/WX    TMP DP  RH WIND       PRES   REMARKS
OAKLAND*       FAIR      63  46  55 SW6       30.30S
CUMBERLAND*    FAIR      70  52  52 S6        30.26S

$$

VAZ025>031-210100-
SHENANDOAH VALLEY

CITY           SKY/WX    TMP DP  RH WIND       PRES   REMARKS
WINCHESTER*    FAIR      66  54  63 S7        30.29R
FRONT ROYAL*   FAIR      68  55  64 CALM      30.28R
LURAY*         FAIR      66  54  63 SW6       30.31R
NEW MARKET*    FAIR      68  53  59 SW10      30.29R
STAUNTON*      FAIR      64  54  69 S7        30.36R
WAYNESBORO*    FAIR      64  55  72 S8        30.36R

$$

WVZ021-048>050-054>055-210100-
EASTERN WEST VIRGINIA PANHANDLE

CITY           SKY/WX    TMP DP  RH WIND       PRES   REMARKS
MARTINSBURG    FAIR      69  56  62 S8        30.26R
PETERSBURG*    FAIR      71  53  53 S8        30.25S

$$

VAZ036>039-050-210100-
CENTRAL FOOTHILLS

CITY           SKY/WX    TMP DP  RH WIND       PRES   REMARKS
CHARLOTTESVILL FAIR      68  57  68 S16G24    30.34R
CULPEPER*      FAIR      71  54  54 SW16G29   30.33R
ORANGE*        FAIR      68  55  64 S10G20    30.35R
GORDONSVILLE*  FAIR      67  58  72 SW10G18   30.35R
WARRENTON*     FAIR      71  50  47 S10G21    30.32R

$$

VAZ055>057-210100-
NORTH AND CENTRAL PIEDMONT

CITY           SKY/WX    TMP DP  RH WIND       PRES   REMARKS
FREDERICKSBRG* FAIR      71  58  64 S10       30.34R
STAFFORD*      FAIR      72  56  56 SW12G26   30.38R

$$

NCZ024-NYZ072-PAZ021-071-VAZ022-071-210100-
OTHER REGIONAL OBSERVATIONS

CITY           SKY/WX    TMP DP  RH WIND       PRES   REMARKS
NEW YORK CITY  FAIR      67  55  65 W3        30.33R
PHILADELPHIA   MOCLDY    66  55  67 S8        30.33R
PITTSBURGH     CLOUDY    72  51  47 SW7       30.19R
ROANOKE        FAIR      65  55  70 S10       30.40R
RICHMOND       FAIR      63  60  90 S8        30.38R
RALEIGH        MOCLDY    65  63  93 CALM      30.41R

$$

ANZ530>537-210100-
MARINE OBSERVATIONS

STATION/POSITION TIME  TEMP    WIND        PRES
                       AIR SEA DIR/SP/G
                 (UTC) (F)     (DEG/KT/KT) (MB)
THOMAS PT LIGHT  NOT AVBL
BALT KEY BRIDGE  2336          150/ 13/ 15 1026.3R
COVE POINT       2336   52     180/ 17/ 17 1028.5R
LEWISETTA        2336   64 48  200/  9/ 11 1028.3R
SOLOMONS ISLAND  2336   49 42  110/  7/  9 1027.6R
PINEY POINT      2348          180/ 11/ 11   N/A

$$




USA.gov is the U.S. government's official web portal to all federal, state and local government web resources and services.